Location: Casco Millpond
(44.5581°N, 87.6111°W)
Time: 21:44:51
(UTC+00:00)

Cosmos 1515 Rocket - Pass Details

Date: 16 January 2026
Orbit: 599 x 623 km, 82.5° (Epoch: 10 February)

Event Time Altitude Azimuth Distance (km) Brightness Sun altitude
Rises 23:07:43 0° 168° (SSE) 2,881 7.1 -5.6°
Reaches altitude 10° 23:10:01 10° 160° (SSE) 1,983 6.2 -6.0°
Maximum altitude 23:14:07 39° 92° (E) 931 4.1 -6.6°
Drops below altitude 10° 23:18:15 10° 23° (NNE) 2,003 5.8 -7.3°
Sets 23:20:36 0° 16° (NNE) 2,915 6.6 -7.7°
